• In Uzbekistan
  • List of Countries
  • For 7 days
  • Water Temperature
  • Satellite Maps
  • Weather Map
  • Weather Widgets
  • user-avatar
    Login

    Hourly Weather Ocotal

    Today, 19 December, Wednesday

    Time Temperature Precipitation Wind Pressure Humidity
    00:00 +21°C° 0 mm 1 mps 708 mmHg 92%
    01:00 +21°C° 0 mm 1 mps 708 mmHg 93%
    02:00 +20°C° 0 mm 1 mps 708 mmHg 94%
    03:00 +20°C° 0 mm 1 mps 707 mmHg 95%
    04:00 +20°C° 0 mm 1 mps 708 mmHg 95%
    05:00 +20°C° 0 mm 1 mps 708 mmHg 96%
    06:00 +19°C° 0 mm 1 mps 708 mmHg 96%
    07:00 +21°C° 0 mm 1 mps 708 mmHg 87%
    08:00 +23°C° 0 mm 1 mps 709 mmHg 77%
    09:00 +25°C° 0 mm 1 mps 709 mmHg 68%
    10:00 +27°C° 0 mm 2 mps 709 mmHg 60%
    11:00 +29°C° 0 mm 2 mps 709 mmHg 52%
    12:00 +30°C° 0 mm 2 mps 708 mmHg 44%
    13:00 +31°C° 0 mm 2 mps 708 mmHg 44%
    14:00 +31°C° 0 mm 2 mps 707 mmHg 44%
    15:00 +31°C° 0 mm 2 mps 706 mmHg 44%
    16:00 +28°C° 0 mm 2 mps 706 mmHg 53%
    17:00 +26°C° 0 mm 1 mps 706 mmHg 62%
    18:00 +24°C° 0 mm 1 mps 706 mmHg 70%
    19:00 +23°C° 0 mm 1 mps 706 mmHg 75%
    20:00 +22°C° 0 mm 1 mps 707 mmHg 80%
    21:00 +19°C° 0 mm 0 mps 707 mmHg 85%
    22:00 +19°C° 0 mm 0 mps 707 mmHg 87%
    23:00 +19°C° 0 mm 0 mps 707 mmHg 88%

    Tomorrow, 20 December, Thursday

    Time Temperature Precipitation Wind Pressure Humidity
    00:00 +18°C° 0 mm 0 mps 707 mmHg 90%
    01:00 +18°C° 0 mm 0 mps 707 mmHg 91%
    02:00 +18°C° 0 mm 0 mps 707 mmHg 92%
    03:00 +18°C° 0 mm 0 mps 707 mmHg 93%
    04:00 +18°C° 0 mm 0 mps 707 mmHg 93%
    05:00 +17°C° 0 mm 0 mps 707 mmHg 94%
    06:00 +17°C° 0 mm 0 mps 707 mmHg 94%
    07:00 +20°C° 0 mm 0 mps 708 mmHg 83%
    08:00 +23°C° 0 mm 0 mps 709 mmHg 72%
    09:00 +26°C° 0 mm 0 mps 710 mmHg 62%
    10:00 +28°C° 0 mm 0 mps 709 mmHg 56%
    11:00 +31°C° 0 mm 1 mps 709 mmHg 50%
    12:00 +33°C° 0 mm 1 mps 708 mmHg 44%
    13:00 +32°C° 0 mm 1 mps 708 mmHg 45%
    14:00 +31°C° 0 mm 1 mps 707 mmHg 46%
    15:00 +31°C° 0 mm 1 mps 706 mmHg 47%
    16:00 +29°C° 0 mm 1 mps 706 mmHg 54%
    17:00 +27°C° 0 mm 1 mps 707 mmHg 61%
    18:00 +25°C° 0 mm 1 mps 707 mmHg 68%
    19:00 +22°C° 0.1 mm 0 mps 707 mmHg 72%
    20:00 +22°C° 0.1 mm 0 mps 708 mmHg 77%
    21:00 +21°C° 0.1 mm 0 mps 709 mmHg 81%
    22:00 +23°C° 0.1 mm 1 mps 708 mmHg 81%
    23:00 +23°C° 0.1 mm 1 mps 708 mmHg 81%

    Day after tomorrow, 21 December, Friday

    Time Temperature Precipitation Wind Pressure Humidity
    00:00 +23°C° 0.1 mm 1 mps 708 mmHg 82%
    01:00 +22°C° 0.1 mm 1 mps 708 mmHg 84%
    02:00 +22°C° 0.1 mm 1 mps 708 mmHg 86%
    03:00 +20°C° 0.1 mm 2 mps 707 mmHg 89%
    04:00 +20°C° 0 mm 2 mps 708 mmHg 90%
    05:00 +20°C° 0 mm 2 mps 708 mmHg 91%
    06:00 +19°C° 0 mm 2 mps 708 mmHg 92%
    07:00 +21°C° 0 mm 2 mps 709 mmHg 83%
    08:00 +22°C° 0 mm 3 mps 710 mmHg 74%
    09:00 +25°C° 0 mm 3 mps 711 mmHg 65%
    10:00 +26°C° 0 mm 4 mps 710 mmHg 58%
    11:00 +27°C° 0 mm 4 mps 710 mmHg 50%
    12:00 +29°C° 0 mm 4 mps 709 mmHg 43%
    13:00 +29°C° 0 mm 4 mps 709 mmHg 42%
    14:00 +29°C° 0 mm 4 mps 708 mmHg 42%
    15:00 +29°C° 0 mm 4 mps 708 mmHg 41%
    16:00 +27°C° 0 mm 4 mps 708 mmHg 47%
    17:00 +25°C° 0 mm 3 mps 708 mmHg 53%
    18:00 +22°C° 0 mm 3 mps 709 mmHg 58%
    19:00 +21°C° 0 mm 3 mps 709 mmHg 63%
    20:00 +20°C° 0 mm 2 mps 709 mmHg 67%
    21:00 +18°C° 0 mm 2 mps 710 mmHg 71%
    22:00 +18°C° 0 mm 2 mps 710 mmHg 74%
    23:00 +17°C° 0 mm 2 mps 709 mmHg 77%

    22 December, Saturday

    Time Temperature Precipitation Wind Pressure Humidity
    00:00 +16°C° 0 mm 2 mps 709 mmHg 80%
    01:00 +16°C° 0 mm 2 mps 709 mmHg 81%
    02:00 +15°C° 0 mm 2 mps 708 mmHg 82%
    03:00 +15°C° 0 mm 2 mps 708 mmHg 84%
    04:00 +15°C° 0 mm 2 mps 708 mmHg 84%
    05:00 +14°C° 0 mm 2 mps 709 mmHg 84%
    06:00 +14°C° 0 mm 2 mps 709 mmHg 84%
    07:00 +17°C° 0 mm 2 mps 709 mmHg 74%
    08:00 +19°C° 0 mm 3 mps 710 mmHg 64%
    09:00 +22°C° 0 mm 3 mps 711 mmHg 54%
    10:00 +23°C° 0 mm 4 mps 710 mmHg 50%
    11:00 +26°C° 0 mm 4 mps 710 mmHg 46%
    12:00 +28°C° 0 mm 4 mps 709 mmHg 43%
    13:00 +28°C° 0 mm 4 mps 709 mmHg 45%
    14:00 +28°C° 0 mm 4 mps 708 mmHg 47%
    15:00 +28°C° 0 mm 5 mps 708 mmHg 50%
    16:00 +26°C° 0 mm 4 mps 708 mmHg 56%
    17:00 +24°C° 0 mm 3 mps 708 mmHg 63%
    18:00 +21°C° 0 mm 2 mps 709 mmHg 69%
    19:00 +21°C° 0 mm 2 mps 709 mmHg 72%
    20:00 +20°C° 0 mm 2 mps 710 mmHg 75%
    21:00 +20°C° 0 mm 2 mps 710 mmHg 79%
    22:00 +20°C° 0 mm 2 mps 710 mmHg 79%
    23:00 +20°C° 0 mm 2 mps 710 mmHg 80%

    23 December, Sunday

    Time Temperature Precipitation Wind Pressure Humidity
    00:00 +19°C° 0 mm 2 mps 709 mmHg 81%
    01:00 +19°C° 0 mm 2 mps 709 mmHg 82%
    02:00 +19°C° 0 mm 2 mps 709 mmHg 83%
    03:00 +19°C° 0 mm 2 mps 708 mmHg 84%
    04:00 +19°C° 0 mm 2 mps 708 mmHg 84%
    05:00 +19°C° 0 mm 2 mps 709 mmHg 85%
    06:00 +19°C° 0 mm 2 mps 709 mmHg 86%
    07:00 +20°C° 0 mm 3 mps 709 mmHg 82%
    08:00 +21°C° 0 mm 3 mps 710 mmHg 77%
    09:00 +23°C° 0 mm 4 mps 710 mmHg 72%
    10:00 +23°C° 0 mm 4 mps 710 mmHg 70%
    11:00 +25°C° 0 mm 4 mps 709 mmHg 68%
    12:00 +26°C° 0 mm 4 mps 709 mmHg 65%
    13:00 +27°C° 0.1 mm 4 mps 708 mmHg 64%
    14:00 +27°C° 0.1 mm 4 mps 708 mmHg 63%
    15:00 +28°C° 0.1 mm 4 mps 707 mmHg 62%
    16:00 +26°C° 0.1 mm 3 mps 707 mmHg 70%
    17:00 +24°C° 0.1 mm 3 mps 708 mmHg 78%
    18:00 +21°C° 0.1 mm 2 mps 708 mmHg 86%
    19:00 +21°C° 0 mm 2 mps 708 mmHg 88%
    20:00 +20°C° 0 mm 2 mps 709 mmHg 91%
    21:00 +20°C° 0 mm 2 mps 709 mmHg 94%
    22:00 +20°C° 0 mm 2 mps 709 mmHg 94%
    23:00 +19°C° 0 mm 2 mps 708 mmHg 95%

    24 December, Monday

    Time Temperature Precipitation Wind Pressure Humidity
    00:00 +19°C° 0 mm 2 mps 708 mmHg 95%
    01:00 +19°C° 0 mm 2 mps 708 mmHg 94%
    02:00 +19°C° 0 mm 2 mps 708 mmHg 94%
    03:00 +19°C° 0 mm 2 mps 708 mmHg 93%
    04:00 +19°C° 0 mm 2 mps 708 mmHg 93%
    05:00 +19°C° 0 mm 2 mps 708 mmHg 93%
    06:00 +19°C° 0 mm 2 mps 708 mmHg 93%
    07:00 +21°C° 0 mm 2 mps 709 mmHg 86%
    08:00 +22°C° 0 mm 3 mps 709 mmHg 79%
    09:00 +24°C° 0 mm 3 mps 710 mmHg 72%
    10:00 +25°C° 0 mm 3 mps 709 mmHg 68%
    11:00 +26°C° 0 mm 4 mps 708 mmHg 63%
    12:00 +28°C° 0 mm 4 mps 708 mmHg 59%
    13:00 +28°C° 0 mm 4 mps 707 mmHg 59%
    14:00 +28°C° 0 mm 4 mps 707 mmHg 59%
    15:00 +28°C° 0 mm 4 mps 706 mmHg 60%
    16:00 +26°C° 0 mm 3 mps 706 mmHg 68%
    17:00 +25°C° 0 mm 3 mps 707 mmHg 76%
    18:00 +23°C° 0 mm 2 mps 707 mmHg 84%
    19:00 +21°C° 0 mm 2 mps 707 mmHg 87%
    20:00 +21°C° 0 mm 2 mps 708 mmHg 90%
    21:00 +20°C° 0 mm 2 mps 708 mmHg 93%
    22:00 +20°C° 0 mm 2 mps 708 mmHg 93%
    23:00 +20°C° 0 mm 2 mps 708 mmHg 93%
    Show more